GW2510 Weather Reports


Display with metric or nautical units.
time (UTC)temp
F
wind
direction
speed
MPH
gust
MPH
rain 1hr
in
rain 24hr
in
rain mn
in
humidity
%
barometer
mb
20260905195555 87 257 3.0 7.0 0.00 0.00 0.00 64 1012.3
20260905195051 87 300 3.0 7.0 0.00 0.00 0.00 67 1012.4
20260905194551 89 286 3.0 4.0 0.00 0.00 0.00 73 1012.5
20260905194050 90 323 2.0 4.0 0.00 0.00 0.00 69 1012.4
20260905193545 91 276 1.0 3.0 0.00 0.00 0.00 69 1012.5
20260905193040 92 277 1.0 2.0 0.00 0.00 0.00 67 1012.3
20260905192535 93 347 1.0 3.0 0.00 0.00 0.00 64 1012.2
20260905192032 95 20 1.0 1.0 0.00 0.00 0.00 62 1012.5
20260905191531 95 350 1.0 2.0 0.00 0.00 0.00 62 1012.6
20260905191030 96 357 1.0 2.0 0.00 0.00 0.00 61 1012.5
20260905190528 96 94 2.0 2.0 0.00 0.00 0.00 61 1012.4
20260905190028 95 95 0.0 0.0 0.00 0.00 0.00 61 1012.6
20260905185527 94 67 1.0 2.0 0.00 0.00 0.00 62 1012.6
20260905185027 94 302 2.0 2.0 0.00 0.00 0.00 61 1012.8
20260905184527 93 165 1.0 4.0 0.00 0.00 0.00 65 1012.9
20260905184025 93 278 2.0 3.0 0.00 0.00 0.00 64 1013.0
20260905183525 94 274 3.0 6.0 0.00 0.00 0.00 61 1013.1
20260905183021 94 229 1.0 2.0 0.00 0.00 0.00 64 1013.3
20260905182520 94 277 1.0 2.0 0.00 0.00 0.00 64 1013.1
20260905182015 93 263 3.0 3.0 0.00 0.00 0.00 63 1013.3
20260905181510 92 272 2.0 2.0 0.00 0.00 0.00 64 1013.2
20260905181009 94 275 2.0 3.0 0.00 0.00 0.00 65 1013.4
20260905180504 92 280 0.0 2.0 0.00 0.00 0.00 64 1013.4
20260905175959 92 164 1.0 3.0 0.00 0.00 0.00 66 1013.5
20260905175458 92 88 2.0 4.0 0.00 0.00 0.00 65 1013.6
20260905174954 92 66 1.0 2.0 0.00 0.00 0.00 64 1013.9
20260905174449 92 251 2.0 2.0 0.00 0.00 0.00 66 1013.8
20260905173945 91 317 0.0 2.0 0.00 0.00 0.00 66 1013.7
20260905173441 91 221 1.0 4.0 0.00 0.00 0.00 69 1013.6
20260905172936 90 170 1.0 3.0 0.00 0.00 0.00 66 1013.7
20260905172434 90 101 4.0 4.0 0.00 0.00 0.00 66 1013.7
20260905171930 91 44 1.0 6.0 0.00 0.00 0.00 65 1013.9
20260905171427 90 72 0.0 2.0 0.00 0.00 0.00 66 1013.7
20260905170923 90 158 1.0 3.0 0.00 0.00 0.00 66 1013.7
20260905170419 90 52 2.0 4.0 0.00 0.00 0.00 67 1014.0
20260905165918 91 214 1.0 2.0 0.00 0.00 0.00 65 1014.1
20260905165413 90 117 2.0 3.0 0.00 0.00 0.00 66 1014.1
20260905164908 90 142 2.0 4.0 0.00 0.00 0.00 66 1014.1
20260905164403 89 137 0.0 3.0 0.00 0.00 0.00 65 1014.2
20260905163858 89 85 4.0 6.0 0.00 0.00 0.00 65 1014.0
20260905163354 88 158 0.0 3.0 0.00 0.00 0.00 68 1014.1
20260905162850 87 158 2.0 3.0 0.00 0.00 0.00 68 1014.1
20260905162350 86 132 2.0 6.0 0.00 0.00 0.00 71 1014.1
20260905161844 88 168 1.0 2.0 0.00 0.00 0.00 68 1014.1
20260905161344 87 248 0.0 1.0 0.00 0.00 0.00 67 1014.2
20260905160843 85 130 2.0 3.0 0.00 0.00 0.00 70 1014.3
20260905160337 84 140 2.0 6.0 0.00 0.00 0.00 71 1014.1
20260905155832 84 119 0.0 3.0 0.00 0.00 0.00 71 1014.2
20260905155331 85 108 2.0 4.0 0.00 0.00 0.00 70 1014.2
20260905154830 86 100 2.0 4.0 0.00 0.00 0.00 67 1014.4
20260905154326 86 142 4.0 7.0 0.00 0.00 0.00 67 1014.4
20260905153821 87 132 2.0 7.0 0.00 0.00 0.00 67 1014.2
20260905153318 87 124 2.0 4.0 0.00 0.00 0.00 67 1014.4
20260905152817 86 94 1.0 4.0 0.00 0.00 0.00 68 1014.5
20260905152316 86 123 3.0 6.0 0.00 0.00 0.00 68 1014.2
20260905151812 85 76 2.0 4.0 0.00 0.00 0.00 70 1014.3
20260905151308 85 302 3.0 6.0 0.00 0.00 0.00 69 1014.0
20260905150807 85 196 5.0 7.0 0.00 0.00 0.00 69 1014.2
20260905150307 85 170 4.0 6.0 0.00 0.00 0.00 71 1014.5
20260905145804 83 76 2.0 7.0 0.00 0.00 0.00 73 1014.6
20260905145259 83 100 5.0 8.0 0.00 0.00 0.00 73 1014.6
20260905144758 83 130 1.0 8.0 0.00 0.00 0.00 75 1014.4
20260905144254 84 106 2.0 7.0 0.00 0.00 0.00 74 1014.3
20260905143752 84 191 3.0 7.0 0.00 0.00 0.00 74 1014.3
20260905143253 83 190 4.0 4.0 0.00 0.00 0.00 76 1014.3
20260905142751 82 142 2.0 6.0 0.00 0.00 0.00 76 1014.5
20260905142246 82 74 2.0 6.0 0.00 0.00 0.00 77 1014.3
20260905141742 83 95 4.0 6.0 0.00 0.00 0.00 77 1014.2
20260905141237 83 94 3.0 3.0 0.00 0.00 0.00 79 1014.2
20260905140733 82 156 2.0 7.0 0.00 0.00 0.00 81 1014.4
20260905140227 81 92 3.0 6.0 0.00 0.00 0.00 82 1014.3
20260905135726 81 134 2.0 8.0 0.00 0.00 0.00 84 1014.4
20260905135222 81 106 3.0 4.0 0.00 0.00 0.00 83 1014.3
20260905134722 81 147 8.0 9.0 0.00 0.00 0.00 83 1014.4
20260905134221 81 169 2.0 6.0 0.00 0.00 0.00 86 1014.3
20260905133716 80 128 3.0 6.0 0.00 0.00 0.00 88 1014.2
20260905133211 78 93 4.0 6.0 0.00 0.00 0.00 91 1014.3
20260905132710 77 123 4.0 7.0 0.00 0.00 0.00 94 1014.2
20260905132206 76 44 1.0 4.0 0.00 0.00 0.00 95 1014.3
20260905131701 77 88 4.0 4.0 0.00 0.00 0.00 94 1014.1
20260905131156 78 151 0.0 0.0 0.00 0.00 0.00 94 1014.0
20260905130656 78 151 0.0 0.0 0.00 0.00 0.00 94 1013.9
20260905130155 76 151 0.0 0.0 0.00 0.00 0.00 95 1013.9
20260905125650 76 151 0.0 0.0 0.00 0.00 0.00 95 1013.9
20260905125146 76 151 0.0 0.0 0.00 0.00 0.00 95 1014.0
20260905124642 77 151 0.0 0.0 0.00 0.00 0.00 95 1013.8
20260905124138 78 151 0.0 0.0 0.00 0.00 0.00 94 1013.8
20260905123632 78 151 0.0 0.0 0.00 0.00 0.00 94 1014.0
20260905123130 77 151 0.0 0.0 0.00 0.00 0.00 94 1013.8
20260905122629 76 151 0.0 0.0 0.00 0.00 0.00 95 1013.7
20260905122124 76 151 0.0 0.0 0.00 0.00 0.00 96 1013.6
20260905121619 76 151 0.0 0.0 0.00 0.00 0.00 96 1013.6
20260905121114 76 150 0.0 1.0 0.00 0.00 0.00 97 1013.6
20260905120613 75 150 0.0 0.0 0.00 0.00 0.00 97 1013.7
20260905120108 75 150 0.0 0.0 0.00 0.00 0.00 97 1013.6
20260905115608 74 150 0.0 0.0 0.00 0.00 0.00 98 1013.4
20260905115102 74 150 0.0 0.0 0.00 0.00 0.00 97 1013.6
20260905114602 74 150 0.0 0.0 0.00 0.00 0.00 97 1013.5
20260905114101 74 150 0.0 0.0 0.00 0.00 0.00 97 1013.5
20260905113556 74 150 0.0 0.0 0.00 0.00 0.00 97 1013.4
20260905113051 74 150 0.0 0.0 0.00 0.00 0.00 98 1013.4
20260905112546 74 150 0.0 0.0 0.00 0.00 0.00 98 1013.4
20260905112042 74 150 0.0 0.0 0.00 0.00 0.00 98 1013.5
20260905111537 74 150 0.0 0.0 0.00 0.00 0.00 98 1013.5
20260905111036 74 150 0.0 0.0 0.00 0.00 0.00 98 1013.5
20260905110535 74 150 0.0 0.0 0.00 0.00 0.00 98 1013.4
20260905110031 74 150 0.0 0.0 0.00 0.00 0.00 98 1013.2
20260905105530 73 150 0.0 0.0 0.00 0.00 0.00 98 1013.4
20260905105030 73 150 0.0 0.0 0.00 0.00 0.00 97 1013.5
20260905104526 73 150 0.0 0.0 0.00 0.00 0.00 97 1013.7
20260905104025 73 150 0.0 0.0 0.00 0.00 0.00 97 1013.4
20260905103521 73 150 0.0 0.0 0.00 0.00 0.00 97 1013.4
20260905103017 74 150 0.0 0.0 0.00 0.00 0.00 97 1013.4
20260905102512 73 150 0.0 0.0 0.00 0.00 0.00 97 1013.4
20260905102009 73 150 0.0 0.0 0.00 0.00 0.00 97 1013.6
20260905101507 73 170 0.0 0.0 0.00 0.00 0.00 97 1013.4
20260905101005 73 170 0.0 0.0 0.00 0.00 0.00 97 1013.4
20260905100502 73 170 0.0 0.0 0.00 0.00 0.00 97 1013.5
20260905100001 73 170 0.0 0.0 0.00 0.00 0.00 97 1013.3
20260905095456 73 170 0.0 0.0 0.00 0.00 0.00 97 1013.4
20260905094951 73 170 0.0 0.0 0.00 0.00 0.00 97 1013.3
20260905094446 73 170 0.0 0.0 0.00 0.00 0.00 97 1013.4
20260905093945 73 170 0.0 0.0 0.00 0.00 0.00 97 1013.5
20260905093440 73 170 0.0 0.0 0.00 0.00 0.00 97 1013.3
20260905092936 73 170 0.0 0.0 0.00 0.00 0.00 97 1013.5
20260905092431 73 170 0.0 0.0 0.00 0.00 0.00 97 1013.4
20260905091926 73 170 0.0 0.0 0.00 0.00 0.00 97 1013.3
20260905091427 73 170 0.0 0.0 0.00 0.00 0.00 97 1013.3
20260905090926 73 170 0.0 0.0 0.00 0.00 0.00 97 1013.1
20260905090421 73 170 0.0 0.0 0.00 0.00 0.00 97 1013.3
20260905085921 73 170 0.0 0.0 0.00 0.00 0.00 97 1013.2
20260905085420 73 170 0.0 0.0 0.00 0.00 0.00 97 1013.2
20260905084916 73 170 0.0 0.0 0.00 0.00 0.00 97 1013.0
20260905084415 73 170 0.0 0.0 0.00 0.00 0.00 97 1013.1
20260905083910 73 170 0.0 0.0 0.00 0.00 0.00 97 1012.9
20260905083406 73 170 0.0 0.0 0.00 0.00 0.00 97 1012.8
20260905082901 73 170 0.0 0.0 0.00 0.00 0.00 97 1013.0
20260905082357 73 170 0.0 0.0 0.00 0.00 0.00 97 1012.8
20260905081852 73 170 0.0 0.0 0.00 0.00 0.00 97 1012.9
20260905081347 73 170 0.0 0.0 0.00 0.00 0.00 97 1012.9
20260905080846 73 170 0.0 0.0 0.00 0.00 0.00 97 1012.9
20260905080340 73 170 0.0 0.0 0.00 0.00 0.00 97 1012.9
20260905075839 73 170 0.0 0.0 0.00 0.00 0.00 97 1012.8
20260905075339 73 170 0.0 0.0 0.00 0.00 0.00 97 1012.6
20260905074839 74 170 0.0 0.0 0.00 0.00 0.00 97 1012.5
20260905074335 73 170 0.0 0.0 0.00 0.00 0.00 97 1012.9
20260905073830 73 170 0.0 0.0 0.00 0.00 0.00 97 1012.8
20260905073325 74 170 0.0 0.0 0.00 0.00 0.00 97 1012.8
20260905072819 74 170 0.0 0.0 0.00 0.00 0.00 97 1012.9
20260905072314 74 170 0.0 0.0 0.00 0.00 0.00 97 1012.9
20260905071811 74 170 0.0 0.0 0.00 0.00 0.00 97 1013.0
20260905071307 74 170 0.0 0.0 0.00 0.00 0.00 97 1012.9
20260905070801 74 170 0.0 0.0 0.00 0.00 0.00 97 1013.1
20260905070259 74 170 0.0 0.0 0.00 0.00 0.00 97 1013.0
20260905065757 74 170 0.0 0.0 0.00 0.00 0.00 97 1013.2
20260905065256 74 170 0.0 0.0 0.00 0.00 0.00 97 1013.0
20260905064751 74 170 0.0 0.0 0.00 0.00 0.00 97 1013.2
20260905064247 74 170 0.0 0.0 0.00 0.00 0.00 97 1013.3
20260905063745 74 170 0.0 0.0 0.00 0.00 0.00 97 1013.3
20260905063241 74 170 0.0 0.0 0.00 0.00 0.00 97 1013.2
20260905062737 74 170 0.0 0.0 0.00 0.00 0.00 97 1013.2
20260905062237 74 170 0.0 0.0 0.00 0.00 0.00 97 1013.4
20260905061732 74 170 0.0 0.0 0.00 0.00 0.00 97 1013.4
20260905061227 74 170 0.0 0.0 0.00 0.00 0.00 97 1013.5
20260905060726 75 170 0.0 0.0 0.00 0.00 0.00 97 1013.3
20260905060223 75 170 0.0 0.0 0.00 0.00 0.00 97 1013.6
20260905055721 75 170 0.0 0.0 0.00 0.00 0.00 97 1013.6
20260905055217 75 170 0.0 0.0 0.00 0.00 0.00 97 1013.5
20260905054712 75 170 0.0 0.0 0.00 0.00 0.00 97 1013.2
20260905054209 75 170 0.0 0.0 0.00 0.00 0.00 96 1013.6
20260905053707 75 170 0.0 0.0 0.00 0.00 0.00 97 1013.5
20260905053203 75 170 0.0 0.0 0.00 0.00 0.00 97 1013.6
20260905052702 75 170 0.0 0.0 0.00 0.00 0.00 96 1013.8
20260905052157 76 170 0.0 0.0 0.00 0.00 0.00 96 1013.7
20260905051652 76 170 0.0 0.0 0.00 0.00 0.00 97 1013.6
20260905051149 76 170 0.0 0.0 0.00 0.00 0.00 97 1013.6
20260905050645 76 170 0.0 0.0 0.00 0.00 0.00 97 1013.5
20260905050141 76 170 0.0 0.0 0.00 0.00 0.00 97 1013.6
20260905045641 76 170 0.0 0.0 0.00 0.00 0.00 96 1013.6
20260905045137 75 170 0.0 0.0 0.00 0.00 0.00 96 1013.4
20260905044637 76 170 0.0 0.0 0.00 0.00 0.00 96 1013.6
20260905044131 76 170 0.0 0.0 0.00 0.00 0.00 96 1013.4
20260905043630 76 170 0.0 0.0 0.00 0.00 0.00 96 1013.6
20260905043125 76 170 0.0 0.0 0.00 0.00 0.00 96 1013.7
20260905042624 76 170 0.0 0.0 0.00 0.00 0.00 96 1013.5
20260905042119 76 170 0.0 0.0 0.00 0.00 0.00 96 1013.7
20260905041615 76 170 0.0 0.0 0.00 0.00 0.00 96 1013.7
20260905041110 76 170 0.0 0.0 0.00 0.00 0.00 96 1013.8
20260905040610 76 170 0.0 0.0 0.00 0.00 0.00 96 1013.7
20260905040109 76 170 0.0 0.0 0.00 0.00 0.00 95 1013.9
20260905035604 76 170 0.0 0.0 0.00 0.00 0.00 95 1013.9
20260905035101 76 170 0.0 0.0 0.00 0.00 0.00 96 1013.9
20260905034557 76 170 0.0 0.0 0.00 0.00 0.00 96 1013.9
20260905034056 77 170 0.0 0.0 0.00 0.00 0.00 96 1014.0
20260905033550 77 170 0.0 0.0 0.00 0.00 0.00 96 1013.9
20260905033047 77 170 0.0 0.0 0.00 0.00 0.00 95 1014.0
20260905032546 77 170 0.0 0.0 0.00 0.00 0.00 95 1013.9
20260905032047 77 170 0.0 0.0 0.00 0.00 0.00 95 1013.9
20260905031543 77 170 0.0 0.0 0.00 0.00 0.00 95 1014.0
20260905031042 77 170 0.0 0.0 0.00 0.00 0.00 94 1013.9
20260905030537 77 170 0.0 0.0 0.00 0.00 0.00 94 1013.9
20260905030037 77 170 0.0 0.0 0.00 0.00 0.00 94 1014.1
20260905025533 77 170 0.0 0.0 0.00 0.00 0.00 94 1014.0
20260905025029 77 170 0.0 0.0 0.00 0.00 0.00 94 1013.9
20260905024524 78 170 0.0 0.0 0.00 0.00 0.00 95 1013.9
20260905024019 78 170 0.0 0.0 0.00 0.00 0.00 95 1013.7
20260905023515 78 170 0.0 0.0 0.00 0.00 0.00 94 1013.9
20260905023015 77 170 0.0 0.0 0.00 0.00 0.00 94 1013.5
20260905022508 78 170 0.0 0.0 0.00 0.00 0.00 94 1013.6
20260905022004 78 170 0.0 0.0 0.00 0.00 0.00 94 1013.7
20260905021503 78 170 0.0 0.0 0.00 0.00 0.00 94 1013.7
20260905020959 78 170 0.0 0.0 0.00 0.00 0.00 93 1013.8
20260905020459 79 170 0.0 0.0 0.00 0.00 0.00 93 1013.9
20260905015959 79 170 0.0 0.0 0.00 0.00 0.00 93 1013.8
20260905015457 79 170 0.0 0.0 0.00 0.00 0.00 93 1013.7
20260905014956 79 170 0.0 0.0 0.00 0.00 0.00 93 1013.6
20260905014452 79 170 0.0 0.0 0.00 0.00 0.00 93 1013.5
20260905013947 79 170 0.0 0.0 0.00 0.00 0.00 93 1013.5
20260905013444 79 170 0.0 0.0 0.00 0.00 0.00 93 1013.5
20260905012945 80 170 0.0 0.0 0.00 0.00 0.00 93 1013.5
20260905012440 80 170 0.0 0.0 0.00 0.00 0.00 92 1013.5
20260905011936 80 170 0.0 0.0 0.00 0.00 0.00 92 1013.5
20260905011432 80 170 0.0 0.0 0.00 0.00 0.00 92 1013.5
20260905010927 80 170 0.0 0.0 0.00 0.00 0.00 92 1013.2
20260905010422 80 170 0.0 0.0 0.00 0.00 0.00 92 1013.5
20260905005918 81 170 0.0 0.0 0.00 0.00 0.00 92 1013.5
20260905005414 81 170 0.0 0.0 0.00 0.00 0.00 91 1013.4
20260905004909 81 170 0.0 0.0 0.00 0.00 0.00 90 1013.2
20260905004409 82 170 0.0 0.0 0.00 0.00 0.00 88 1013.1
20260905003904 82 170 0.0 0.0 0.00 0.00 0.00 87 1013.1
20260905003401 83 170 0.0 0.0 0.00 0.00 0.00 88 1013.2
20260905002856 83 170 0.0 0.0 0.00 0.00 0.00 88 1013.0
20260905002355 83 170 0.0 0.0 0.00 0.00 0.00 88 1013.0
20260905001850 84 170 0.0 0.0 0.00 0.00 0.00 86 1013.1
20260905001350 85 170 0.0 0.0 0.00 0.00 0.00 85 1013.0
20260905000845 86 170 0.0 0.0 0.00 0.00 0.00 83 1013.0
20260905000341 86 170 0.0 0.0 0.00 0.00 0.00 83 1013.1
20260904235836 87 170 0.0 0.0 0.00 0.00 0.00 82 1013.1
20260904235331 89 172 0.0 0.0 0.00 0.00 0.00 79 1013.2
20260904234827 91 232 0.0 0.0 0.00 0.00 0.00 71 1013.1
20260904234326 92 232 0.0 0.0 0.00 0.00 0.00 71 1013.2
20260904233822 95 232 0.0 0.0 0.00 0.00 0.00 67 1013.1
20260904233318 96 232 0.0 0.0 0.00 0.00 0.00 65 1013.1
20260904232815 97 232 0.0 0.0 0.00 0.00 0.00 64 1013.1
20260904232311 97 232 0.0 0.0 0.00 0.00 0.00 61 1013.1
20260904231807 97 232 0.0 0.0 0.00 0.00 0.00 59 1013.1
20260904231307 96 232 0.0 0.0 0.00 0.00 0.00 61 1013.0
20260904230802 96 245 0.0 0.0 0.00 0.00 0.00 60 1013.1
20260904230300 96 287 0.0 0.0 0.00 0.00 0.00 60 1013.0
20260904225756 95 263 0.0 1.0 0.00 0.00 0.00 62 1013.0
20260904225249 96 230 0.0 0.0 0.00 0.00 0.00 61 1012.8
20260904224748 96 219 0.0 0.0 0.00 0.00 0.00 58 1012.9
20260904224244 96 218 0.0 0.0 0.00 0.00 0.00 60 1013.0
20260904223743 96 242 1.0 1.0 0.00 0.00 0.00 58 1013.0
20260904223238 96 251 0.0 2.0 0.00 0.00 0.00 57 1013.0
20260904222734 96 238 0.0 2.0 0.00 0.00 0.00 58 1013.1
20260904222230 96 271 1.0 2.0 0.00 0.00 0.00 58 1013.0
20260904221729 96 237 2.0 2.0 0.00 0.00 0.00 58 1013.0
20260904221224 96 266 0.0 1.0 0.00 0.00 0.00 57 1013.0
20260904220724 96 260 0.0 3.0 0.00 0.00 0.00 57 1012.9
20260904220219 96 224 2.0 3.0 0.00 0.00 0.00 56 1013.0
20260904215719 96 269 2.0 6.0 0.00 0.00 0.00 57 1013.1
20260904215215 96 308 1.0 3.0 0.00 0.00 0.00 58 1013.1
20260904214710 96 268 4.0 4.0 0.00 0.00 0.00 58 1013.0
20260904214205 97 206 2.0 4.0 0.00 0.00 0.00 56 1013.2
20260904213703 97 249 1.0 2.0 0.00 0.00 0.00 59 1013.3
20260904213200 97 270 1.0 3.0 0.00 0.00 0.00 56 1013.3
20260904212655 97 187 1.0 3.0 0.00 0.00 0.00 56 1013.2
20260904212150 97 245 2.0 4.0 0.00 0.00 0.00 55 1013.3
20260904211649 97 272 3.0 4.0 0.00 0.00 0.00 55 1013.4
20260904211145 97 278 3.0 4.0 0.00 0.00 0.00 53 1013.3
20260904210645 96 275 2.0 7.0 0.00 0.00 0.00 55 1013.3
20260904210140 97 185 4.0 6.0 0.00 0.00 0.00 55 1013.4
20260904205636 96 288 4.0 6.0 0.00 0.00 0.00 55 1013.4
20260904205133 97 264 1.0 3.0 0.00 0.00 0.00 57 1013.4
20260904204628 97 212 3.0 4.0 0.00 0.00 0.00 55 1013.5
20260904204124 96 196 4.0 4.0 0.00 0.00 0.00 54 1013.4
20260904203620 96 240 3.0 7.0 0.00 0.00 0.00 57 1013.6
20260904203116 97 292 2.0 3.0 0.00 0.00 0.00 55 1013.5
20260904202612 96 256 2.0 4.0 0.00 0.00 0.00 56 1013.6
20260904202108 96 246 3.0 6.0 0.00 0.00 0.00 56 1013.8
20260904201608 96 268 4.0 8.0 0.00 0.00 0.00 53 1013.8
20260904201103 96 272 3.0 6.0 0.00 0.00 0.00 56 1014.0
20260904200602 96 234 3.0 6.0 0.00 0.00 0.00 57 1014.2
20260904200057 96 225 2.0 6.0 0.00 0.00 0.00 55 1014.3